AO-07 1 07530U 74089B 20008.77138984 -.00000045 00000-0 17623-5 0 9994 2 07530 101.7773 339.5651 0012104 314.8177 163.6859 12.53641456065853 UO-11 1 14781U 84021B 20009.12635844 .00000068 00000-0 14440-4 0 9991 2 14781 97.5977 29.0119 0008817 18.2235 341.9294 14.83133655929061 LO-19 1 20442U 90005G 20008.77273124 -.00000011 00000-0 12297-4 0 9997 2 20442 098.6735 315.6526 0010644 268.4531 091.5433 14.32942334565549 HUBBLE 1 20580U 90037B 20009.01377376 .00000458 00000-0 16939-4 0 9998 2 20580 28.4700 300.7779 0002833 160.7059 287.4418 15.09323087431780 MET-2/21 1 22782U 93055A 20009.21432296 .00000024 00000-0 83339-5 0 9990 2 22782 82.5489 0.7555 0021634 327.7618 42.8552 13.83822478331156 AO-27 1 22825U 93061C 20008.94154006 .00000003 00000-0 18985-4 0 9995 2 22825 98.9178 7.3954 0009295 120.8290 239.3807 14.30075305371144 IO-26 1 22826U 93061D 20009.24531614 .00000005 00000-0 19779-4 0 9998 2 22826 98.9119 7.6726 0009916 109.6958 250.5294 14.30409957371392 FO-29 1 24278U 96046B 20009.59785755 -.00000044 00000-0 -11383-4 0 9990 2 24278 98.5650 140.5225 0351288 68.9739 294.8597 13.53095180155512 NOAA-15 1 25338U 98030A 20009.45102511 .00000017 00000-0 25798-4 0 9994 2 25338 98.7321 35.1913 0010571 13.6707 346.4757 14.25946643126439 GO-32 1 25397U 98043D 20009.55794513 -.00000024 00000-0 87674-5 0 9994 2 25397 98.7121 312.4205 0001881 128.6356 231.4991 14.23677308117023 ISS 1 25544U 98067A 20009.58914988 -.00000025 00000-0 76486-5 0 9997 2 25544 51.6454 58.1754 0005256 115.3542 45.1089 15.49547809207273 NO-44 1 26931U 01043C 20009.20838797 -.00000029 00000-0 20612-4 0 9991 2 26931 67.0494 195.9211 0006758 263.2565 96.7768 14.30564017954222 SO-50 1 27607U 02058C 20008.81677774 -.00000018 00000-0 18210-4 0 9990 2 27607 64.5546 145.5025 0067206 215.9370 143.7204 14.75600781917157 CO-55 1 27844U 03031E 20009.02986080 .00000046 00000-0 40469-4 0 9993 2 27844 98.6833 19.1770 0010285 154.6189 205.5496 14.22214917857339 CO-57 1 27848U 03031J 20009.01008321 .00000031 00000-0 33985-4 0 9998 2 27848 98.6906 19.6958 0009966 166.0802 194.0652 14.21805018857175 RS-22 1 27939U 03042A 20009.35562399 .00000077 00000-0 22309-4 0 9996 2 27939 98.0656 146.5473 0013963 136.5060 223.7262 14.66829579870544 NOAA-18 1 28654U 05018A 20009.49928486 .00000098 00000-0 78006-4 0 9992 2 28654 99.0689 64.2511 0013596 324.4481 35.5783 14.12480227754421 CO-58 1 28895U 05043F 20008.83986873 .00000091 00000-0 26350-4 0 9996 2 28895 97.9851 149.9414 0017954 69.5346 290.7782 14.63727664757341 Falconsat-3 1 30776U 07006E 20008.31503930 .00002369 00000-0 65237-4 0 9997 2 30776 035.4336 230.3744 0002222 188.1270 171.9421 15.37030543712025 CO-65 1 32785U 08021C 20008.79583942 .00000188 00000-0 25925-4 0 9997 2 32785 97.5606 4.0068 0011905 310.7119 49.3063 14.88400496634042 AAUSAT2 1 32788U 08021F 20008.81604568 .00000181 00000-0 21512-4 0 9992 2 32788 97.4919 20.4697 0010576 230.6432 129.3853 14.94909388635411 DO-64 1 32789U 08021G 20009.17290228 .00000722 00000-0 51627-4 0 9998 2 32789 97.4402 57.4209 0013210 140.4830 219.7364 15.07374848637769 CO-66 1 32791U 08021J 20009.47536024 .00000398 00000-0 45598-4 0 9990 2 32791 97.5332 10.7776 0011832 276.7172 83.2701 14.90948641634626 RS-30 1 32953U 08025A 20009.47596256 .00000037 00000-0 19437-3 0 9999 2 32953 82.5038 17.4040 0020144 45.3285 314.9429 12.43093509527758 PRISM 1 33493U 09002B 20009.56518023 .00001017 00000-0 94088-4 0 9996 2 33493 98.1330 303.3778 0013845 220.5348 139.4843 14.96869947595794 NOAA-19 1 33591U 09005A 20009.49251623 .00000044 00000-0 49227-4 0 9994 2 33591 99.1922 10.7015 0014222 160.7835 199.3875 14.12390963562812 TISAT-1 1 36799U 10035E 20009.00948062 .00000385 00000-0 44844-4 0 9997 2 36799 98.1762 173.2825 0013239 132.6438 227.5898 14.91243640515211 JUGNU 1 37839U 11058B 20008.81484622 .00000298 00000-0 16928-4 0 9999 2 37839 019.9593 176.9336 0018977 057.3140 076.6429 14.12668486426041 SRMSAT 1 37841U 11058D 20008.94245397 .00000305 00000-0 22617-4 0 9991 2 37841 019.9705 237.1680 0011788 280.2860 200.7572 14.10647454425475 AO-71 1 37854U 11061E 20009.23431097 .00000991 00000-0 57832-4 0 9994 2 37854 101.7135 17.7851 0159478 178.1065 182.0785 15.06909999447797 HRBE 1 37855U 11061F 20009.00907554 .00000803 00000-0 47773-4 0 9991 2 37855 101.7266 14.6718 0172130 190.9664 168.7777 15.05925523447521 ALMASAT-1 1 38078U 12006B 20009.56412936 .00073556 59817-5 23905-3 0 9995 2 38078 69.4229 33.2894 0104458 298.4494 210.8367 15.82253394429667 HORYU-2 1 38340U 12025D 20008.39010760 .00000139 00000-0 28224-4 0 9999 2 38340 098.3048 057.8188 0011376 188.8470 171.2539 14.75796003400793 RS-40 1 38735U 12041C 20008.73836901 .00000010 00000-0 -26266-5 0 9990 2 38735 082.4767 100.8819 0017797 149.2173 210.9952 12.42580229337890 BEESAT-3 1 39135U 13015F 20008.69284385 .00001003 00000-0 58177-4 0 9992 2 39135 064.8666 100.4894 0044648 271.8852 087.7161 15.17840554370813 BEESAT-2 1 39136U 13015G 20008.54414383 .00000863 00000-0 52718-4 0 9998 2 39136 064.8717 105.4120 0031027 279.9957 079.7668 15.17263057370708 ZACUBE-1 1 39417U 13066B 20008.79297560 .00000206 00000-0 31990-4 0 9999 2 39417 97.5610 15.8036 0060388 84.9374 275.8729 14.81203527331254 TRITON-1 1 39427U 13066M 20009.50027916 .00000109 00000-0 25575-4 0 9990 2 39427 97.7036 339.5316 0112553 229.4296 129.7071 14.67927875328387 GOMX-1 1 39430U 13066Q 20009.50260481 .00000181 00000-0 42147-4 0 9994 2 39430 97.7723 317.8536 0150618 329.0656 30.1726 14.59336341326471 LO-74 1 39440U 13066AA 20009.49810903 .00000160 00000-0 29013-4 0 9997 2 39440 97.6159 0.9923 0081093 138.8898 221.8461 14.75940630330186 AO-73 1 39444U 13066AE 20008.81476754 .00000251 00000-0 36975-4 0 9994 2 39444 97.5572 17.9502 0059464 78.0014 282.7857 14.82040766330163 SPROUT 1 39770U 14029E 20009.53806539 .00000653 00000-0 77929-4 0 9994 2 39770 97.8897 116.6249 0009711 128.7287 231.4808 14.87569036305281 DUCHIFAT-1 1 40021U 14033M 20009.54068024 .00000452 00000-0 51770-4 0 9993 2 40021 97.9346 299.8982 0014297 93.8076 266.4777 14.90781935302067 NANOSATCBR1 1 40024U 14033Q 20008.87097864 .00000346 00000-0 41777-4 0 9993 2 40024 97.9217 296.0975 0013547 99.5100 260.7649 14.89970639301845 EO-79 1 40025U 14033R 20009.52821757 .00000246 00000-0 32120-4 0 9994 2 40025 97.9117 293.9065 0013769 103.7274 256.5476 14.89050509301809 DTUSAT-2 1 40030U 14033W 20009.51367903 .00000224 00000-0 29985-4 0 9998 2 40030 97.9017 291.6867 0013276 99.8923 260.3793 14.88635365301722 EO-80 1 40032U 14033Y 20008.85471236 .00000224 00000-0 30035-4 0 9999 2 40032 097.9023 291.0308 0013190 102.6027 257.6666 14.88580630301090 ANTELSAT 1 40034U 14033AA 20008.54130492 .00000176 00000-0 33350-4 0 9992 2 40034 97.7328 231.7412 0059099 157.2816 203.1029 14.74187599298709 VELOX-1 1 40057U 14034E 20009.84622833 .00000195 00000-0 34841-4 0 9994 2 40057 98.2573 142.6805 0009788 299.0678 60.9556 14.77779323298067 DAURIA DX 1 1 40071U 14037C 20009.83635704 .00000101 00000-0 20525-4 0 9994 2 40071 98.4452 179.5081 0007355 292.1783 67.8653 14.81323864297620 UKUBE-1 1 40074U 14037F 20009.86032544 .00000236 00000-0 35448-4 0 9992 2 40074 98.4495 188.7207 0003234 279.5770 80.5097 14.84170618298084 HODOYOSHI-1 1 40299U 14070B 20009.57626889 .00000564 00000-0 26371-4 0 9996 2 40299 97.3364 89.9319 0013744 44.1422 62.9746 15.23704700287463 CHUBUSAT-1 1 40300U 14070C 20009.16204110 .00000664 00000-0 31622-4 0 9999 2 40300 97.3085 82.9668 0021252 58.5636 357.5651 15.22316860287121 QSAT-EOS 1 40301U 14070D 20009.60109036 .00001511 00000-0 60152-4 0 9992 2 40301 97.3109 87.6112 0026507 37.5419 72.0045 15.26474289287545 FIREBIRD FU3 1 40377U 15003B 20009.00994924 .00001475 00000-0 60688-4 0 9997 2 40377 99.1148 36.2754 0126180 129.3204 231.9293 15.19472295272949 FIREBIRD FU4 1 40378U 15003C 20009.12748395 .00001478 00000-0 60737-4 0 9998 2 40378 99.1151 36.5057 0126381 128.8086 232.4510 15.19485798272960 GRIFEX 1 40379U 15003D 20009.11444648 .00000972 00000-0 44945-4 0 9993 2 40379 99.1199 29.3199 0134555 150.7162 210.1694 15.15983458272554 NO-84 1 40654U 15025D 20008.34089026 .00008686 00000-0 11213-3 0 8217 2 40654 54.9875 321.5162 0129803 129.8534 231.3956 15.50562821144007 DEORBITSAIL 1 40719U 15032E 20008.93728829 .00000327 00000-0 53671-4 0 9998 2 40719 097.8881 261.3551 0016804 011.1022 349.0556 14.76884483242400 NUDT-PHONESAT 1 40900U 15049B 20009.62104509 .00002041 00000-0 88404-4 0 9995 2 40900 97.4343 21.9997 0012530 178.0749 278.8242 15.23485474238851 XW-2A 1 40903U 15049E 20009.63859382 .00001943 00000-0 46677-4 0 9991 2 40903 97.3124 58.3157 0014881 119.6276 37.2201 15.42504872241838 XW-2C 1 40906U 15049H 20009.58886326 .00000527 00000-0 30975-4 0 9997 2 40906 97.4726 13.3561 0013920 203.3515 302.6847 15.15887892238039 XW-2D 1 40907U 15049J 20009.60485259 .00000831 00000-0 46524-4 0 9996 2 40907 97.4714 13.0600 0013315 200.1652 299.8744 15.16098818238051 LILACSAT-2 1 40908U 15049K 20009.57474402 .00000062 00000-0 70558-5 0 9992 2 40908 97.4852 11.6035 0015017 209.4646 297.0751 15.13928546237804 XW-2E 1 40909U 15049L 20009.71708434 .00001015 00000-0 52968-4 0 9997 2 40909 97.4620 16.3679 0013074 191.9108 228.3919 15.18128341238290 XW-2F 1 40910U 15049M 20009.50094770 .00000881 00000-0 47077-4 0 9992 2 40910 97.4653 15.2809 0014172 191.5055 319.7164 15.17638377238075 XW-2B 1 40911U 15049N 20009.63860885 .00000453 00000-0 27017-4 0 9992 2 40911 97.4730 13.7753 0013224 201.0593 252.7092 15.16024437237951 DCBB 1 40912U 15049P 20009.61095855 .00001165 00000-0 57176-4 0 9998 2 40912 97.4496 19.3478 0014814 170.8612 328.0435 15.19994321238431 TW-1C 1 40926U 15051B 20009.57111516 .00015216 00000-0 18721-3 0 9998 2 40926 97.1099 60.7435 0006032 343.0093 121.0498 15.60315288242053 TW-1A 1 40928U 15051D 20009.65554969 .00002771 00000-0 67276-4 0 9994 2 40928 97.1270 41.3109 0012257 55.4216 38.7292 15.41782694240744 IO-86 1 40931U 15052B 20008.73385127 .00000640 00000-0 00000 0 0 9995 2 40931 5.9917 41.4791 0013162 160.0202 200.3725 14.76621920231463 LQSat 1 40958U 15057A 20008.88397737 .00000013 00000-0 95842-5 0 9993 2 40958 097.8759 077.3017 0016990 308.5720 051.3966 14.73103215228872 AO-85 1 40967U 15058D 20008.33104038 .00000015 00000-0 20963-4 0 9245 2 40967 64.7751 260.0189 0176423 134.1999 227.3756 14.76050198137793 ATHENOXAT-1 1 41168U 15077C 20009.62613155 .00001799 00000-0 59149-4 0 9998 2 41168 14.9870 153.7786 0011480 63.3866 296.7630 15.14026726225088 ChubuSat-2 1 41338U 16012B 20008.82501565 .00000309 00000-0 17249-4 0 9990 2 41338 31.0034 287.4108 0013754 324.6920 35.2804 15.00228733213591 ChubuSat-3 1 41339U 16012C 20009.17016657 .00000295 00000-0 16129-4 0 9993 2 41339 31.0129 283.0497 0013726 335.5342 24.4657 15.00398556213641 Horyu-4 1 41340U 16012D 20008.41736694 .00000433 00000-0 26120-4 0 9997 2 41340 031.0049 277.2400 0013845 349.7982 010.2371 15.01391233213655 OUFTI-1 1 41458U 16025C 20009.22350423 .00001329 00000-0 70528-4 0 9999 2 41458 98.0994 111.4990 0165466 29.6126 331.4344 15.06367611203353 e-st@r-II 1 41459U 16025D 20009.75608931 .00001434 00000-0 76385-4 0 9992 2 41459 98.0982 111.5937 0166398 29.4339 331.6154 15.05969436203401 AAUSAT4 1 41460U 16025E 20009.52951769 .00001705 00000-0 87619-4 0 9992 2 41460 98.0967 113.1566 0156263 20.8921 339.8564 15.08072289203537 LO-87 1 41557U 16033B 20009.57353531 .00001191 00000-0 46762-4 0 9999 2 41557 97.4108 100.8570 0012159 296.7156 63.2838 15.27650103201360 NuSat2 1 41558U 16033C 20009.54770215 .00001364 00000-0 50163-4 0 9991 2 41558 97.4146 102.5594 0011182 295.7133 64.2953 15.29589810201443 Lapan A3 1 41603U 16040E 20009.88096686 .00000200 00000-0 12443-4 0 9997 2 41603 97.3342 68.2024 0014754 46.1581 68.5953 15.19784836196905 Swayam 1 41607U 16040J 20008.60064605 .00001306 00000-0 57038-4 0 9993 2 41607 097.3411 071.6051 0014215 040.0670 320.1613 15.23795388196929 Pratham 1 41783U 16059A 20009.16290237 .00000057 00000-0 20098-4 0 9990 2 41783 98.0414 68.9294 0034881 100.6914 259.8218 14.63030761175441 AlSat 1N 1 41789U 16059G 20009.38667033 .00000032 00000-0 14999-4 0 9998 2 41789 98.0443 71.5985 0029668 88.7685 271.6919 14.64288446175608 ScatSat 1 41790U 16059H 20009.88593253 -.00000014 00000-0 72934-5 0 9992 2 41790 98.1841 54.7338 0006825 57.3184 302.8670 14.50926330174082 TY-1 1 41844U 16066D 20009.63389588 .00000815 00000-0 35890-4 0 9994 2 41844 97.4045 19.6121 0014805 180.9689 288.1691 15.24585804175911 Pegasus-1 1 41846U 16066F 20008.38744855 .00000228 00000-0 45310-4 0 9995 2 41846 098.6863 056.5612 0366948 352.8405 006.7622 14.37681916165824 CAS-2T 1 41847U 16066G 20008.48037462 .00000058 00000-0 19654-4 0 9999 2 41847 98.6796 57.1655 0365535 348.6330 10.6760 14.38032329166282 EO-88 1 42017U 17008BX 20008.98934040 .00001418 00000-0 57882-4 0 9995 2 42017 97.3811 78.7654 0006824 155.5532 204.6031 15.26041669161079 nSIGHT1 1 42726U 98067MF 20009.17965413 .00060146 00000-0 26623-3 0 9997 2 42726 51.6320 335.1382 0000769 211.2843 148.8114 15.83831147150079 CAS-4B 1 42759U 17034B 20009.85408132 .00000010 00000-0 14106-4 0 9991 2 42759 43.0173 183.8705 0010011 103.3000 33.8811 15.09717059141845 CAS-4A 1 42761U 17034D 20009.87389477 .00000165 00000-0 23518-4 0 9994 2 42761 43.0174 183.1657 0010387 105.0377 37.9956 15.09796259141844 UCLSat 1 42765U 17036A 20008.42038401 .00001160 00000-0 51978-4 0 9995 2 42765 97.3253 66.8048 0010139 227.3620 132.6763 15.23156148141474 NIUSat 1 42766U 17036B 20008.80879953 .00000845 00000-0 40606-4 0 9998 2 42766 097.3248 065.0863 0014502 219.5346 140.4834 15.21434108141267 LituanicaSAT 2 1 42768U 17036D 20008.96761804 .00001905 00000-0 82683-4 0 9991 2 42768 97.3301 67.1002 0013972 215.9827 144.0471 15.23465138141403 Aalto 1 1 42775U 17036L 20009.20254563 .00000727 00000-0 35180-4 0 9997 2 42775 97.3231 65.8185 0012894 216.9872 143.0476 15.21607079141306 URSA MAIOR 1 42776U 17036M 20009.14401562 .00000773 00000-0 37056-4 0 9999 2 42776 97.3242 65.9809 0012718 216.9907 143.0453 15.21764816141305 Max Valier Sat 1 42778U 17036P 20009.17147296 .00000832 00000-0 39003-4 0 9995 2 42778 97.3289 67.0536 0011279 219.8767 140.1642 15.22339975141342 Pegasus 1 42784U 17036V 20009.20258093 .00001046 00000-0 47546-4 0 9993 2 42784 97.3256 67.3187 0010755 225.5743 134.4615 15.22875446141382 NUDATSat 1 42787U 17036Y 20008.92889349 .00001312 00000-0 56967-4 0 9991 2 42787 097.3297 068.1025 0009654 230.0957 129.9433 15.24021814141240 SUCHAI 1 1 42788U 17036Z 20009.60963738 .00001280 00000-0 56715-4 0 9998 2 42788 97.3262 68.1654 0010373 222.2458 137.7981 15.23362021141545 SKCUBE 1 42789U 17036AA 20008.85232148 .00001164 00000-0 52055-4 0 9993 2 42789 097.3259 067.3239 0010183 225.4438 134.5968 15.23229709141347 VZLUSAT 1 1 42790U 17036AB 20008.85106397 .00001572 00000-0 67723-4 0 9992 2 42790 097.3279 068.0228 0009781 223.2208 136.8263 15.24010697141382 VENTA 1 1 42791U 17036AC 20008.89109182 .00001047 00000-0 47102-4 0 9998 2 42791 097.3257 067.4105 0009855 225.5810 134.4621 15.23228985141340 Robusta 1B 1 42792U 17036AD 20008.82557090 .00001168 00000-0 51965-4 0 9993 2 42792 097.3261 067.5007 0009762 225.7895 134.2541 15.23409163141360 D-SAT 1 42794U 17036AF 20009.07328632 .00000642 00000-0 60873-4 0 9995 2 42794 97.5131 49.4898 0125850 179.8285 180.2996 14.91200722138798 TechnoSat 1 42829U 17042E 20009.50017701 .00000257 00000-0 31253-4 0 9993 2 42829 97.5411 258.5639 0015710 97.1190 263.1816 14.91043254135451 QIKCOM-1 1 42983U 98067NF 20009.63575097 .00003793 00000-0 51797-4 0 9994 2 42983 51.6396 30.3479 0003880 166.2125 193.8974 15.60246896125327 AO-91 1 43017U 17073E 20009.23446049 .00000303 00000-0 29442-4 0 9997 2 43017 97.7268 287.6257 0256689 212.0357 146.5032 14.78766625115481 EcAMSat 1 43019U 98067NG 20009.48452991 .00007916 00000-0 88762-4 0 9998 2 43019 51.6410 21.9023 0004191 149.9204 210.2032 15.63714792207742 PICSAT 1 43132U 18004X 20008.99847318 .00001194 00000-0 52221-4 0 9996 2 43132 97.4671 81.2070 0008097 254.6275 105.4067 15.24018966110616 AO-92 1 43137U 18004AC 20008.15686341 .00000903 00000-0 40458-4 0 9992 2 43137 97.4660 80.2784 0007614 260.4904 99.5473 15.23810430110471 TianYi 2 1 43155U 18008A 20009.87552611 .00001040 00000-0 65164-4 0 9992 2 43155 97.4677 82.8970 0017134 343.4681 144.4968 15.11411005108812 Zhou Enlai 1 43156U 18008B 20009.85351508 .00000744 00000-0 48362-4 0 9994 2 43156 97.4718 82.7412 0014199 343.0923 128.4907 15.10929518108774 TianYi 6 1 43158U 18008D 20009.35066900 .00000366 00000-0 26020-4 0 9997 2 43158 97.4675 81.5033 0013634 342.8457 79.5602 15.10483374108656 S-Net G 1 43186U 18014G 20008.87010133 .00000025 00000-0 72793-5 0 9999 2 43186 097.7022 279.2323 0011964 046.8269 313.3951 14.96732003105674 S-Net H 1 43187U 18014H 20008.86991737 .00000022 00000-0 70208-5 0 9993 2 43187 097.7020 279.2151 0011963 046.7707 313.4511 14.96732028105677 S-Net J 1 43188U 18014J 20008.86975700 .00000018 00000-0 65981-5 0 9993 2 43188 097.7023 279.2386 0011964 046.8516 313.3703 14.96731778105674 S-Net K 1 43189U 18014K 20008.87012418 .00000027 00000-0 74450-5 0 9994 2 43189 097.7020 279.2116 0011958 046.7717 313.4501 14.96731276104228 FMN 1 1 43192U 18015A 20009.86040339 .00002026 00000-0 83960-4 0 9998 2 43192 97.4214 140.4377 0014544 293.9723 218.4465 15.24976716107575 Shaonian Xing 1 43199U 18015H 20009.81375178 .00001413 00000-0 58833-4 0 9992 2 43199 97.3999 139.0656 0015643 306.0122 208.3947 15.25304849107627 1KUNS-PF 1 43466U 98067NP 20009.43652843 .00045988 00000-0 28476-3 0 9993 2 43466 51.6342 8.5757 0001350 62.7232 297.3905 15.76585976 95096 UBAKUSAT 1 43467U 98067NQ 20009.56075251 .00020241 00000-0 18200-3 0 9999 2 43467 51.6357 19.9836 0002043 102.8574 257.2651 15.68219583 94969 Irazu 1 43468U 98067NR 20009.10046752 .00110097 00000-0 39441-3 0 9993 2 43468 51.6336 358.6901 0003455 69.7545 290.3831 15.87959864195188 EnduroSat One 1 43551U 98067NZ 20009.22940586 .00025876 00000-0 21520-3 0 9996 2 43551 51.6354 23.0154 0003344 196.8347 163.2540 15.69957862 85126 EQUISat 1 43552U 98067PA 20009.26044700 .00017538 00000-0 16562-3 0 9990 2 43552 51.6378 27.0420 0004181 193.6661 166.4223 15.67113935 85033 UiTMSat 1 1 43589U 98067PD 20009.46223033 .00022416 00000-0 20225-3 0 9992 2 43589 51.6347 26.0238 0003327 205.6376 154.4456 15.68060032 80808 Maya 1 1 43590U 98067PE 20008.30827041 .00018619 00000-0 16921-3 0 9993 2 43590 51.6350 31.8265 0003445 201.8863 158.1987 15.68018427 80551 Bhutan 1 1 43591U 98067PF 20009.24681578 .00022500 00000-0 20241-3 0 9995 2 43591 51.6359 26.8882 0003548 205.9378 154.1441 15.68129701 80706 SiriusSat 1 1 43595U 98067PG 20009.55511129 .00020440 00000-0 19459-3 0 9997 2 43595 51.6350 28.1583 0002304 148.6791 211.4343 15.66795921 79892 SiriusSat 2 1 43596U 98067PH 20009.28763317 .00019434 00000-0 18634-3 0 9991 2 43596 51.6360 30.1817 0002739 150.1838 209.9314 15.66654672 79841 Tanusha-3 1 43597U 98067PJ 20008.59180704 .00026342 00000-0 21482-3 0 9999 2 43597 051.6334 028.4164 0001594 157.2506 202.8562 15.70423888079807 SurfSat 1 43614U 18070B 20008.19387064 .00002451 00000-0 64793-4 0 9997 2 43614 93.0373 87.8732 0013248 234.5804 125.4213 15.38429109 73688 CP-7 DAVE 1 43615U 18070C 20008.66751848 .00002274 00000-0 60324-4 0 9994 2 43615 093.0377 088.0671 0013462 231.8448 128.1593 15.38320899073755 ELFIN-B 1 43616U 18070D 20009.15534267 .00003294 00000-0 84431-4 0 9992 2 43616 93.0334 88.1786 0014040 233.2321 126.7645 15.39330861 73850 ELFIN-A 1 43617U 18070E 20009.52949231 .00004125 00000-0 10528-3 0 9994 2 43617 93.0390 88.7122 0013490 227.2470 132.7650 15.39455337 73915 STARS-Me Mother 1 43640U 98067PQ 20009.28452508 .00010772 00000-0 12696-3 0 9996 2 43640 51.6368 38.4190 0004724 138.4654 221.6700 15.61958970 71660 CubeBel 1 1 43666U 18083E 20009.86037153 .00001208 00000-0 62747-4 0 9990 2 43666 97.5045 37.7930 0014630 189.6634 273.7878 15.17943281 66406 Changshagaoxin 1 43669U 18083H 20009.54030036 .00000708 00000-0 39167-4 0 9995 2 43669 97.4912 36.1559 0010815 181.3667 178.7539 15.17054706 66286 Ten-Koh 1 43677U 18084G 20009.55342080 .00000073 00000-0 13387-4 0 9992 2 43677 97.8681 127.1891 0015251 330.4362 29.5992 14.90234637 65121 PO-101 1 43678U 18084H 20009.48199888 .00000045 00000-0 10154-4 0 9999 2 43678 97.8676 128.0897 0009789 354.4408 5.6729 14.91596425 65173 IRVINE 01 1 43693U 18088D 20009.51871797 .00002350 00000-0 10023-3 0 9995 2 43693 85.0351 182.8034 0018908 153.9935 206.2262 15.22175780 64510 QO-100 1 43700U 18090A 20009.14563021 .00000159 00000-0 00000 0 0 9999 2 43700 0.0146 54.4423 0002110 260.2175 231.7072 1.00271730 4340 Reaktor Hello World 1 43743U 18096AA 20009.84058662 .00001169 00000-0 46718-4 0 9992 2 43743 97.4399 84.4160 0017434 337.2171 131.7700 15.27035301 62037 MinXSS-2 1 43758U 18099A 20009.16361994 .00000356 00000-0 37299-4 0 9992 2 43758 97.7258 83.5843 0015751 10.8067 349.3489 14.95551270 59990 AO-95 1 43770U 18099N 20008.46555020 .00000327 00000-0 35227-4 0 9990 2 43770 97.7254 82.5089 0014882 20.1429 340.0375 14.94884847 59867 RANGE-B 1 43772U 18099Q 20009.17358258 .00000072 00000-0 11814-4 0 9998 2 43772 97.7315 83.5434 0014168 5.3771 354.7599 14.95039998 59965 RANGE-A 1 43773U 18099R 20009.19160966 .00000039 00000-0 88717-5 0 9998 2 43773 97.7198 82.9818 0013523 5.4452 354.6913 14.94890190 59962 MOVE-II 1 43780U 18099Y 20009.19194927 .00000251 00000-0 28050-4 0 9999 2 43780 97.7248 83.3410 0013658 15.7196 344.4446 14.95244280 59969 SNUSat 2 1 43782U 18099AA 20009.19220507 .00000069 00000-0 11541-4 0 9999 2 43782 97.7248 83.3784 0012696 5.4196 354.7160 14.95159687 59976 SnugLite 1 43784U 18099AC 20009.17057748 -.00000004 00000-0 48419-5 0 9999 2 43784 97.7217 83.2296 0015350 12.6694 347.4909 14.95253573 59984 ITASat 1 1 43786U 18099AE 20009.16894960 .00000033 00000-0 82052-5 0 9997 2 43786 97.7270 83.5057 0015436 11.7841 348.3738 14.95242403 59982 EAGLET 1 1 43790U 18099AJ 20008.46568663 .00000264 00000-0 28915-4 0 9995 2 43790 97.7257 82.9957 0013774 19.0921 341.0813 14.95613632 59583 ESEO 1 43792U 18099AL 20009.20292974 .00000249 00000-0 27626-4 0 9990 2 43792 97.7233 83.6182 0013456 13.9838 346.1752 14.95557041 59752 CSIM 1 43793U 18099AM 20009.15532632 .00000803 00000-0 76916-4 0 9995 2 43793 97.7217 83.4813 0012981 12.3970 347.7568 14.95890761 59724 Astrocast 0.1 1 43798U 18099AS 20010.01248615 .00000104 00000-0 14510-4 0 9998 2 43798 97.7248 84.5895 0012406 354.2170 5.8835 14.95799716 60119 JO-97 1 43803U 18099AX 20010.00423142 -.00000022 00000-0 32443-5 0 9990 2 43803 97.7226 84.1871 0015592 8.7613 351.3771 14.95391861 60100 Suomi 100 1 43804U 18099AY 20008.86659704 .00000355 00000-0 37309-4 0 9990 2 43804 097.7225 083.0622 0015331 013.1896 346.9723 14.95387987059947 Al Farabi 2 1 43805U 18099AZ 20009.25370807 .00000076 00000-0 12072-4 0 9999 2 43805 97.7230 83.4885 0015376 11.6681 348.4893 14.95480572 60001 PWSat 2 1 43814U 18099BJ 20009.64499752 .00017424 00000-0 12088-2 0 9993 2 43814 97.7810 88.1147 0002265 29.8675 330.2679 15.05651436 59623 CHOMPTT 1 43855U 18104G 20009.23272178 .00000937 00000-0 38389-4 0 9996 2 43855 85.0372 281.1758 0015495 287.3569 72.5975 15.22696880 59149 ISAT 1 43879U 18111D 20009.52545339 -.00000144 00000-0 -76235-5 0 9999 2 43879 97.7108 279.4486 0014492 61.4951 298.7727 14.96125113 54577 UWE-4 1 43880U 18111E 20009.19676502 -.00000073 00000-0 -13042-5 0 9999 2 43880 97.7118 279.3128 0013561 63.5477 296.7134 14.96361085 54530 Sparrow 1 43881U 18111F 20009.51930206 -.00000131 00000-0 -64167-5 0 9999 2 43881 97.7126 279.6786 0013879 61.0643 299.1969 14.96416532 54578 Lume 1 1 43908U 18111AJ 20008.86690167 .00001063 00000-0 45564-4 0 9997 2 43908 097.2788 273.4164 0021365 355.3796 004.7242 15.24710402057556 FO-98 1 43933U 19003B 20009.65760927 .00000703 00000-0 33716-4 0 9992 2 43933 97.2556 65.3127 0019726 84.9014 71.2384 15.21889130 54229 FO-99 1 43937U 19003F 20009.59607219 .00001271 00000-0 54855-4 0 9991 2 43937 97.2518 66.0625 0025922 70.8191 87.5624 15.24005403 54286 Delphini 1 1 44030U 98067PW 20008.58100511 .00012258 00000-0 14929-3 0 9998 2 44030 051.6369 047.9819 0003559 186.5549 173.5399 15.60946650053345 MYSat 1 1 44045U 18092F 20009.81762503 .00003006 00000-0 95624-4 0 9999 2 44045 51.6411 96.9110 0012727 107.4860 252.7515 15.35854957 50754 AstroCast 0.2 1 44083U 19018F 20008.62170290 .00000591 00000-0 29246-4 0 9997 2 44083 97.4437 71.7089 0014365 21.6586 338.5254 15.21588045 42920 AISTechSat 3 1 44103U 19018AB 20009.66258154 .00000729 00000-0 34057-4 0 9990 2 44103 97.4320 72.8107 0014466 34.2834 116.7422 15.22912970 43119 AISat 1 1 44104U 19018AC 20008.90272650 .00000748 00000-0 26502-4 0 9991 2 44104 097.4854 077.4153 0060064 063.5681 297.1706 15.30784427043240 Raavana-1 1 44329U 98067QE 20009.50307188 .00008179 00000-0 12721-3 0 9996 2 44329 51.6405 54.1910 0006844 121.1898 238.9765 15.54864427 32097 Uguisu 1 44330U 98067QF 20008.54465398 .00007459 00000-0 11694-3 0 9997 2 44330 51.6409 59.0384 0006850 116.7230 243.4463 15.54794974 31925 NepaliSat-1 1 44331U 98067QG 20009.49853113 .00008182 00000-0 12710-3 0 9993 2 44331 51.6407 54.1609 0006857 122.6288 237.5366 15.54897715 32087 Prox-1 1 44339U 19036A 20008.47772529 .00000717 00000-0 12109-3 0 9996 2 44339 24.0041 44.6234 0010551 189.2507 170.7778 14.52795608 28692 OBJECT H 1 44346U 19036H 20009.30500240 .00701214 11880-3 55465-2 0 9998 2 44346 28.5223 340.7405 0195832 61.9852 300.0436 15.49003079 29822 OBJECT J 1 44347U 19036J 20009.20226906 .00036958 00000-0 53411-3 0 9997 2 44347 28.5312 345.0736 0341587 53.3650 309.7846 15.08634493 29778 OBJECT K 1 44348U 19036K 20008.62358347 .00013041 00000-0 20050-3 0 9999 2 44348 028.5218 355.8081 0378079 035.7817 326.7500 14.99695612029619 Armadillo 1 44352U 19036P 20009.26161633 .00016449 00000-0 25291-3 0 9992 2 44352 28.5366 350.4842 0371158 44.1504 318.8001 15.01202914 29668 NO-104 1 44354U 19036R 20009.25430667 .00011312 00000-0 16966-3 0 9992 2 44354 28.5313 350.3555 0375969 43.9713 319.0162 15.00557811 29709 NO-103 1 44355U 19036S 20009.23087388 .00019715 00000-0 29197-3 0 9994 2 44355 28.5314 348.2266 0364747 47.4630 315.6169 15.03354384 29729 Oculus-ASR 1 44356U 19036T 20009.20653872 .00051337 00000-0 66523-3 0 9999 2 44356 28.5271 340.0466 0334066 60.7542 302.6029 15.12472985 29814 CP9 1 44360U 19036X 20009.24519617 .00030395 -51789-5 37799-3 0 9996 2 44360 28.5220 343.0977 0358312 56.1006 307.3058 15.07536095 29650 Move-IIb 1 44398U 19038N 20008.81810847 .00001136 00000-0 69638-4 0 9993 2 44398 097.5155 332.3525 0024602 324.0117 035.9456 15.11965862028306 SONATE 1 44400U 19038Q 20009.48574058 .00000430 00000-0 28860-4 0 9990 2 44400 97.5180 333.0271 0024323 319.7331 40.2097 15.11795770 28403 BeeSat 9 1 44412U 19038AC 20008.33945665 .00000787 00000-0 49371-4 0 9997 2 44412 97.5171 331.9369 0022152 330.1402 29.8563 15.12027229 27920 JAISAT-1 1 44419U 19038F 20008.87423102 .00000796 00000-0 49275-4 0 9993 2 44419 097.5172 332.6063 0020959 328.0006 031.9951 15.12512177028327 LightSail-2 1 44420U 19036AC 20009.30249641 .00003502 00000-0 76322-3 0 9996 2 44420 24.0056 38.5240 0018897 156.4633 203.6658 14.54055166 26966 Taurus 1 1 44530U 19059C 20009.47544325 -.00000735 00000-0 -19634-3 0 9998 2 44530 98.5789 89.0023 0014335 271.7979 88.1573 14.45264883 17234 MO-106 1 44830U 19084G 20009.12863273 .00024955 00000-0 23367-3 0 9993 2 44830 96.9992 238.0795 0040926 126.0863 234.4200 15.66100546 5279 TRSI-Sat 1 44831U 19084H 20008.87238577 .00026200 00000-0 24527-3 0 9992 2 44831 96.9998 237.8337 0040716 126.3772 234.1257 15.66109082 5244 MO-105 1 44832U 19084J 20009.18921700 .00028637 00000-0 26596-3 0 9999 2 44832 96.9994 238.1512 0040405 125.2767 235.2285 15.66305572 5286 Duchifat 3 1 44854U 19089C 20009.89498445 .00000316 00000-0 32080-4 0 9991 2 44854 36.9699 321.2229 0008461 217.7549 142.2613 14.98945643 4347 OPS-SAT 1 44878U 19092F 20008.64308267 -.00000066 00000-0 00000 0 0 9990 2 44878 97.4618 194.7066 0014438 188.4176 171.6936 15.15188257 3184 FloripaSat 1 1 44885U 19093G 20009.50930098 .00000204 00000-0 32550-4 0 9991 2 44885 97.9747 86.5294 0014213 202.7132 157.3464 14.81949704 3017 /EX